[[{"header":{"parameterUnit":"m.s-1","parameterCategory":1,"la1":30.2991,"la2":30.254,"lo1":-89.0895,"lo2":-89.0444,"dy":0.0017,"dx":0.0017,"nx":28,"ny":28,"refTime":"2024-12-05T09:00:00:Z","depth":0,"parameterNumber":2,"parameterNumberName":"U-component_of_WINDS"},"data":[0,0,0,0,0,0,0,0,0,0,0,0,0,0,0,0,0,0,0,0,0,0,0,0,0,0,0,0,0,0,0,0,0,0,0,0,0,0,0,0,0,0,0,0,0,0,0,0,0,0,0,0,0,0,0,0,0,0,-4.2122,-4.2123,0,-4.2163,-4.2163,-4.2164,-4.2005,-4.2001,-4.1996,-4.1991,-4.2035,-4.204,-4.2045,0,0,0,0,0,0,0,0,0,0,0,0,0,-4.1909,-4.1913,-4.2122,-4.2123,-4.2123,-4.2163,-4.2163,-4.2164,-4.2006,-4.2,-4.1995,-4.1989,-4.2033,-4.2039,-4.2046,0,0,0,0,0,0,0,0,0,0,0,0,0,-4.1981,-4.1915,-4.2122,-4.2049,-4.2043,-4.2163,-4.2163,-4.2164,-4.2007,-4.2,-4.1993,-4.1987,-4.2031,-4.2039,-4.2047,-4.2239,0,0,-4.2072,-4.2076,0,0,0,0,0,0,0,0,-4.1977,-4.1989,-4.206,-4.2055,-4.2048,-4.2072,-4.2103,-4.2189,-4.2009,-4.2021,-4.1991,-4.1983,-4.2053,-4.2059,-4.2082,-4.2241,-4.2243,-4.2073,-4.2078,-4.2081,-4.2084,0,0,0,0,0,0,0,-4.1972,-4.1986,-4.2138,-4.2061,-4.2054,-4.2015,-4.2017,-4.2119,-4.2076,-4.2019,-4.2008,-4.2015,-4.2048,-4.2074,-4.2082,-4.2243,-4.2073,-4.208,-4.2085,-4.2088,-4.256,-4.2567,0,0,0,0,0,0,-4.1976,-4.1983,-4.2137,-4.2139,-4.1994,-4.2024,-4.2027,-4.2071,-4.2074,-4.2068,-4.2021,-4.2007,-4.2064,-4.2072,-4.2083,-4.2307,-4.2081,-4.2089,-4.2094,-4.2552,-4.2562,-4.257,0,0,0,0,0,0,-4.1973,-4.1992,-4.2135,-4.2058,-4.2073,-4.2035,-4.2086,-4.2076,-4.2101,-4.2075,-4.2067,-4.2055,-4.2058,-4.2071,-4.2201,-4.2306,-4.2093,-4.21,-4.2544,-4.2555,-4.2566,-4.2758,0,0,0,0,0,0,-4.1967,-4.1991,-4.2064,-4.2061,-4.2078,-4.2254,-4.2093,-4.2082,-4.2116,-4.2099,-4.2106,-4.21,-4.2054,-4.2189,-4.2209,-4.2314,-4.2107,-4.2534,-4.2549,-4.2562,-4.2742,-4.2774,-4.2802,0,0,0,0,0,-4.196,-4.2117,-4.2069,-4.2088,-4.2168,-4.226,-4.227,-4.2213,-4.2125,-4.2198,-4.2181,-4.21,-4.2291,-4.2204,-4.2225,-4.2334,-4.2527,-4.2545,-4.2561,-4.2728,-4.2768,-4.2801,0,0,0,0,0,0,-4.2135,-4.2115,-4.2061,-4.2222,-4.2244,-4.2233,-4.2323,-4.2257,-4.2304,-4.2286,-4.2214,-4.2217,-4.2359,-4.2359,-4.2262,-4.2518,-4.2394,-4.2416,-4.2514,-4.2551,-4.2581,-4.2578,-4.2114,0,0,0,0,0,-4.2192,-4.2268,-4.2247,-4.2391,-4.2404,-4.2362,-4.24,-4.2354,-4.2374,-4.2382,-4.2374,-4.2397,-4.2461,-4.2506,-4.2564,-4.274,-4.2739,-4.2825,-4.2855,-4.288,-4.29,-4.2992,-4.303,-4.2626,-4.2626,-4.2625,0,0,-4.2311,-4.231,-4.2362,-4.2426,-4.2437,-4.2517,-4.2371,-4.2462,-4.2521,-4.2396,-4.2518,-4.2513,-4.2533,-4.2687,-4.2754,-4.2691,-4.3011,-4.2902,-4.2922,-4.2928,-4.3014,-4.3052,-4.3086,-4.2637,-4.2635,-4.2633,0,0,-4.2569,-4.2576,-4.2696,-4.271,-4.2728,-4.2699,-4.2728,-4.2727,-4.2719,-4.2839,-4.2747,-4.2816,-4.2929,-4.2947,-4.2971,-4.3234,-4.3161,-4.3255,-4.3412,-4.3503,-4.3534,-4.3562,-4.3656,-4.369,-4.3275,-4.3275,-4.3275,0,-4.2715,-4.2831,-4.2766,-4.2863,-4.2894,-4.2783,-4.2904,-4.2921,-4.2958,-4.2981,-4.291,-4.3049,-4.3055,-4.321,-4.3274,-4.3298,-4.3328,-4.3254,-4.3535,-4.3562,-4.3587,-4.3676,-4.3711,-4.3286,-4.3285,-4.3284,-4.3283,0,-4.301,-4.3092,-4.3187,-4.3224,-4.3265,-4.3374,-4.3325,-4.3374,-4.3324,-4.3302,-4.3426,-4.3429,-4.3485,-4.3519,-4.3471,-4.3668,-4.3628,-4.3547,-4.342,-4.3638,-4.372,-4.3753,-4.3303,-4.3299,-4.3295,-4.3292,0,0,-4.3381,-4.3379,-4.3415,-4.343,-4.3442,-4.3504,-4.3607,-4.3661,-4.3705,-4.3734,-4.3818,-4.3916,-4.384,-4.3868,-4.3821,-4.3901,-4.4108,-4.381,-4.3809,-4.3865,-4.4323,-4.4384,-4.4425,-4.4059,-4.4065,-4.407,-4.4321,0,-4.3633,-4.3809,-4.3753,-4.3931,-4.4006,-4.3901,-4.399,-4.4007,-4.3989,-4.405,-4.4029,-4.41,-4.3996,-4.4011,-4.4085,-4.4067,-4.4199,-4.4048,-4.4137,-4.4141,-4.4136,-4.4467,-4.4532,-4.477,-4.4353,-4.4358,-4.4362,0,-4.3952,-4.3993,-4.4179,-4.4176,-4.4205,-4.4287,-4.4331,-4.439,-4.4407,-4.4388,-4.4418,-4.4354,-4.4454,-4.4327,-4.4464,-4.4363,-4.4396,-4.4392,-4.44,-4.4407,-4.4266,-4.4483,-4.4844,-4.488,-4.4412,-4.4408,-4.4404,0,-4.4204,-4.4305,-4.4428,-4.4445,-4.4445,-4.4505,-4.4507,-4.4516,-4.4552,-4.4591,-4.4613,-4.4664,-4.4692,-4.4732,-4.4683,-4.4595,-4.4828,-4.4697,-4.4815,-4.4817,-4.4869,-4.4867,-4.5241,-4.4891,-4.489,-4.4889,-4.4889,0,-4.4493,-4.461,-4.4541,-4.4618,-4.4746,-4.4679,-4.4808,-4.4799,-4.4808,-4.488,-4.4792,-4.4862,-4.4793,-4.4857,-4.4819,-4.4938,-4.4952,-4.4939,-4.4928,-4.4947,-4.4949,-4.4968,-4.4951,-4.4899,-4.4897,-4.4895,-4.4893,0,-4.4796,-4.4755,-4.4882,-4.4871,-4.4871,-4.4966,-4.4957,-4.5026,-4.5001,-4.5094,-4.5112,-4.5073,-4.5143,-4.5098,-4.5169,-4.5143,-4.5299,-4.5265,-4.5294,-4.5284,-4.5405,-4.5395,-4.5805,-4.5855,-4.5473,-4.5477,-4.548,0,-4.4983,-4.5071,-4.5069,-4.5111,-4.5119,-4.5188,-4.5223,-4.5161,-4.5201,-4.5226,-4.5293,-4.5355,-4.5401,-4.5517,-4.5496,-4.5549,-4.5515,-4.5655,-4.5523,-4.5539,-4.5517,-4.5513,-4.5521,-4.5683,-4.5687,-4.5691,-4.5694,0,-4.532,-4.5294,-4.5349,-4.5397,-4.5441,-4.5476,-4.5503,-4.5542,-4.5479,-4.5529,-4.5599,-4.5635,-4.5706,-4.5769,-4.5813,-4.5815,-4.5745,-4.5735,-4.5766,-4.5787,-4.58,-4.5794,-4.5367,-4.5727,-4.5723,-4.5721,-4.5719,-4.5718,-4.557,-4.5643,-4.5653,-4.5716,-4.573,-4.5757,-4.5821,-4.5804,-4.5861,-4.5914,-4.5873,-4.5956,-4.5968,-4.602,-4.6032,-4.6095,-4.6038,-4.6082,-4.6093,-4.6105,-4.6122,-4.5789,-4.6103,-4.6102,-4.6101,-4.6101,-4.61,0,-4.5902,-4.5903,-4.5961,-4.6002,-4.6052,-4.5979,-4.6005,-4.6052,-4.6126,-4.6143,-4.619,-4.627,-4.633,-4.6312,-4.6365,-4.642,-4.6389,-4.6436,-4.6431,-4.6433,-4.617,-4.6139,-4.646,-4.646,-4.646,-4.646,-4.646,-4.646,-4.6081,-4.6199,-4.6175,-4.63,-4.6299,-4.6379,-4.64,-4.6424,-4.6438,-4.6531,-4.658,-4.6567,-4.657,-4.6622,-4.6674,-4.6667,-4.6691,-4.675,-4.6732,-4.6487,-4.6452,-4.6418,-4.6388,-4.6756,-4.6756,-4.6989,-4.6991,-4.6993]},{"header":{"parameterUnit":"m.s-1","parameterCategory":1,"la1":30.2991,"la2":30.254,"lo1":-89.0895,"lo2":-89.0444,"dy":0.0017,"dx":0.0017,"nx":28,"ny":28,"refTime":"2024-12-05T09:00:00:Z","depth":0,"parameterNumber":3,"parameterNumberName":"V-component_of_WINDS"},"data":[0,0,0,0,0,0,0,0,0,0,0,0,0,0,0,0,0,0,0,0,0,0,0,0,0,0,0,0,0,0,0,0,0,0,0,0,0,0,0,0,0,0,0,0,0,0,0,0,0,0,0,0,0,0,0,0,0,0,-4.2904,-4.2904,0,-4.2943,-4.2943,-4.2944,-4.2891,-4.2889,-4.2888,-4.2886,-4.2924,-4.2927,-4.2929,0,0,0,0,0,0,0,0,0,0,0,0,0,-4.2781,-4.2784,-4.2904,-4.2904,-4.2905,-4.2943,-4.2943,-4.2944,-4.2892,-4.2889,-4.2887,-4.2885,-4.2923,-4.2926,-4.2929,0,0,0,0,0,0,0,0,0,0,0,0,0,-4.2829,-4.2784,-4.2904,-4.2883,-4.2882,-4.2942,-4.2943,-4.2944,-4.2892,-4.2889,-4.2886,-4.2884,-4.2922,-4.2926,-4.293,-4.3012,0,0,-4.2943,-4.2944,0,0,0,0,0,0,0,0,-4.2826,-4.2833,-4.2886,-4.2885,-4.2883,-4.2909,-4.2914,-4.2966,-4.2893,-4.2888,-4.2886,-4.2883,-4.2921,-4.2925,-4.2939,-4.3013,-4.3015,-4.2943,-4.2945,-4.2947,-4.2948,0,0,0,0,0,0,0,-4.2823,-4.2831,-4.2919,-4.2887,-4.2885,-4.2871,-4.2875,-4.2923,-4.292,-4.2888,-4.2885,-4.289,-4.292,-4.2935,-4.2939,-4.3016,-4.2943,-4.2947,-4.2949,-4.2951,-4.3156,-4.3159,0,0,0,0,0,0,-4.2822,-4.2829,-4.2918,-4.292,-4.2847,-4.2876,-4.288,-4.2904,-4.2919,-4.2919,-4.2892,-4.2888,-4.2929,-4.2934,-4.294,-4.3034,-4.2947,-4.2951,-4.2953,-4.3153,-4.3157,-4.316,0,0,0,0,0,0,-4.282,-4.2831,-4.2916,-4.2874,-4.2883,-4.2881,-4.2908,-4.2906,-4.2921,-4.2922,-4.2921,-4.2908,-4.2927,-4.2934,-4.2994,-4.3035,-4.2953,-4.2957,-4.315,-4.3154,-4.3158,-4.3225,0,0,0,0,0,0,-4.2817,-4.283,-4.2862,-4.2875,-4.2886,-4.297,-4.2911,-4.2909,-4.2928,-4.2922,-4.2937,-4.2937,-4.2925,-4.2988,-4.2998,-4.3039,-4.296,-4.3146,-4.3152,-4.3157,-4.3219,-4.3231,-4.3242,0,0,0,0,0,-4.2812,-4.288,-4.2864,-4.2875,-4.2926,-4.2973,-4.2979,-4.2965,-4.2932,-4.2963,-4.2964,-4.2936,-4.3029,-4.2994,-4.3005,-4.3049,-4.3143,-4.315,-4.3156,-4.3214,-4.3229,-4.3242,0,0,0,0,0,0,-4.2872,-4.2881,-4.2864,-4.2938,-4.2955,-4.2964,-4.3003,-4.2982,-4.3009,-4.3002,-4.2983,-4.2986,-4.3049,-4.3055,-4.3016,-4.3127,-4.308,-4.309,-4.3121,-4.3135,-4.3146,-4.3142,-4.2963,0,0,0,0,0,-4.2894,-4.2932,-4.2938,-4.3002,-4.3012,-4.3006,-4.3026,-4.3014,-4.3031,-4.3038,-4.3043,-4.3059,-4.3092,-4.3114,-4.3144,-4.322,-4.3221,-4.3255,-4.3266,-4.3276,-4.3283,-4.3321,-4.3335,-4.3182,-4.3182,-4.3182,0,0,-4.294,-4.2949,-4.2975,-4.3015,-4.3026,-4.3065,-4.3013,-4.3056,-4.3084,-4.3044,-4.31,-4.3104,-4.3121,-4.3188,-4.3218,-4.3195,-4.3326,-4.3284,-4.3292,-4.3294,-4.3329,-4.3344,-4.3357,-4.3186,-4.3186,-4.3185,0,0,-4.3042,-4.3054,-4.3107,-4.312,-4.3139,-4.3134,-4.3147,-4.3159,-4.316,-4.3216,-4.3186,-4.3218,-4.3276,-4.3288,-4.3302,-4.3407,-4.3382,-4.3417,-4.3476,-4.3513,-4.3525,-4.3535,-4.357,-4.3583,-4.3425,-4.3426,-4.3426,0,-4.3096,-4.3153,-4.3138,-4.3183,-4.32,-4.3165,-4.3218,-4.3231,-4.3259,-4.3271,-4.3245,-4.3314,-4.3324,-4.3392,-4.3417,-4.3431,-4.3443,-4.3415,-4.3525,-4.3535,-4.3545,-4.3578,-4.3591,-4.343,-4.3429,-4.3429,-4.3428,0,-4.3217,-4.3258,-4.3299,-4.3325,-4.3347,-4.3397,-4.3387,-4.3411,-4.3396,-4.3394,-4.3449,-4.3459,-4.349,-4.3505,-4.3492,-4.3571,-4.3556,-4.3528,-4.348,-4.3564,-4.3594,-4.3607,-4.3435,-4.3434,-4.3433,-4.3432,0,0,-4.3359,-4.3375,-4.339,-4.34,-4.3418,-4.3448,-4.3494,-4.3524,-4.3544,-4.3564,-4.36,-4.3649,-4.3622,-4.3638,-4.3625,-4.3658,-4.3737,-4.3625,-4.3625,-4.3644,-4.3822,-4.3842,-4.3857,-4.3721,-4.3723,-4.3725,-4.382,0,-4.3459,-4.3539,-4.3525,-4.3603,-4.3638,-4.3605,-4.3645,-4.3659,-4.3657,-4.3686,-4.3685,-4.3718,-4.3682,-4.3691,-4.3722,-4.3721,-4.3772,-4.3714,-4.3753,-4.3755,-4.3748,-4.3873,-4.3895,-4.3984,-4.3832,-4.3834,-4.3836,0,-4.3587,-4.361,-4.3691,-4.37,-4.3714,-4.375,-4.3775,-4.3804,-4.3818,-4.3815,-4.3832,-4.3812,-4.3857,-4.381,-4.3869,-4.383,-4.3845,-4.3847,-4.385,-4.3852,-4.3799,-4.3876,-4.4012,-4.4025,-4.3855,-4.3853,-4.3852,0,-4.3678,-4.3731,-4.3785,-4.3795,-4.3808,-4.3833,-4.384,-4.3851,-4.3869,-4.3891,-4.3902,-4.3928,-4.3943,-4.3963,-4.3951,-4.3918,-4.4011,-4.3964,-4.4008,-4.4008,-4.4028,-4.4027,-4.4166,-4.4041,-4.4041,-4.4041,-4.4041,0,-4.379,-4.3841,-4.3826,-4.3859,-4.3913,-4.3897,-4.3951,-4.3953,-4.3963,-4.3995,-4.3968,-4.3998,-4.3981,-4.401,-4.4001,-4.405,-4.4057,-4.4054,-4.4051,-4.4055,-4.4055,-4.4064,-4.4056,-4.4044,-4.4044,-4.4043,-4.4042,0,-4.3902,-4.3895,-4.3951,-4.3958,-4.396,-4.4,-4.4005,-4.4035,-4.4031,-4.4072,-4.408,-4.4074,-4.4106,-4.4096,-4.4131,-4.4125,-4.4186,-4.4176,-4.4182,-4.4178,-4.4222,-4.4217,-4.437,-4.4388,-4.4254,-4.4255,-4.4256,0,-4.3973,-4.4011,-4.4021,-4.404,-4.4048,-4.408,-4.4098,-4.4082,-4.4101,-4.4119,-4.4147,-4.4177,-4.4199,-4.4252,-4.425,-4.4276,-4.4264,-4.4316,-4.4268,-4.4271,-4.4262,-4.4259,-4.4262,-4.4325,-4.4327,-4.4328,-4.4329,0,-4.4099,-4.4093,-4.412,-4.4145,-4.4167,-4.4186,-4.4202,-4.422,-4.4205,-4.4228,-4.426,-4.4277,-4.4312,-4.4341,-4.4364,-4.4369,-4.4346,-4.4344,-4.4355,-4.436,-4.436,-4.4358,-4.4205,-4.4341,-4.4339,-4.4339,-4.4338,-4.4338,-4.4191,-4.4222,-4.4233,-4.4263,-4.4274,-4.4289,-4.4317,-4.4316,-4.4343,-4.437,-4.4359,-4.4395,-4.4406,-4.4435,-4.4443,-4.447,-4.445,-4.4467,-4.4471,-4.4475,-4.4479,-4.4358,-4.4475,-4.4474,-4.4474,-4.4474,-4.4474,0,-4.4314,-4.4319,-4.4347,-4.437,-4.4393,-4.437,-4.4386,-4.4407,-4.4439,-4.4452,-4.4474,-4.451,-4.4537,-4.4537,-4.4562,-4.4584,-4.4574,-4.4591,-4.4588,-4.4589,-4.4497,-4.4484,-4.4599,-4.4599,-4.4599,-4.4599,-4.4599,-4.4599,-4.438,-4.443,-4.4425,-4.4479,-4.4483,-4.4519,-4.453,-4.4543,-4.4552,-4.4593,-4.4616,-4.4616,-4.4623,-4.4648,-4.4671,-4.467,-4.468,-4.4701,-4.4696,-4.4609,-4.4596,-4.4584,-4.4572,-4.4703,-4.4704,-4.4785,-4.4786,-4.4787]}]]